Danville, ME

2:21 AM EDT on September 27, 2016 (GMT -0400)
Auburn-Lewiston Municipal

Weather History for KLEW - March, 2013

Change the Weather History Date:

Friday, March 8, 2013

  Actual Average Record
Temperature  
Mean Temperature 36 °F -  
Max Temperature 44 °F 34 °F 62 °F (2012)
Min Temperature 28 °F 17 °F -9 °F (2007)
Degree Days  
Heating Degree Days 29    
Moisture  
Dew Point 19 °F    
Average Humidity 52    
Maximum Humidity 86    
Minimum Humidity 31    
Precipitation  
Precipitation 0.00 in - - ()
Sea Level Pressure  
Sea Level Pressure 30.10 in    
Wind  
Wind Speed 19 mph (NNE)    
Max Wind Speed 25 mph    
Max Gust Speed 36 mph    
Visibility 10 miles    
Events      
Averages and records for this station are not official NWS values.
T = Trace of Precipitation, MM = Missing Value Source: NWS Daily Summary

Daily Weather History Graph

Daily Weather History Graph

Search for Another Location

Airport or City:

Trip Planner

Search our weather history database for the weather conditions in past years. The results will help you decide how hot, cold, wet, or windy it might be!

Date:

Astronomy

Mar. 08, 2013 Rise Set
Actual Time 6:05 AM EST 5:38 PM EST
Civil Twilight 5:36 AM EST 6:07 PM EST
Nautical Twilight 5:03 AM EST 6:41 PM EST
Astronomical Twilight 4:29 AM EST 7:14 PM EST
Moon 3:53 AM EST (3/8) 2:25 PM EST (3/8)
Length of Visible Light 12h 30m
Length of Day
11h 33m
Waning Crescent, 12% of the Moon is Illuminated
Mar 8
Waning Crescent
Mar 11
New
Mar 19
First Quarter
Mar 27
Full
Apr 3
Last Quarter

Hourly Weather History & Observations

Time (EST) Temp. Windchill Dew Point Humidity Pressure Visibility Wind Dir Wind Speed Gust Speed Precip Events Conditions
12:15 AM 30.2 °F 18.5 °F 21.2 °F 69% 30.09 in 10.0 mi NNE 17.3 mph 25.3 mph N/A   Overcast
12:35 AM 30.2 °F 18.1 °F 21.2 °F 69% 30.08 in 10.0 mi NNE 18.4 mph 28.8 mph N/A   Overcast
12:55 AM 30.2 °F 17.4 °F 21.2 °F 69% 30.08 in 10.0 mi North 20.7 mph 26.5 mph N/A   Overcast
1:16 AM 30.2 °F 17.8 °F 23.0 °F 75% 30.07 in 10.0 mi North 19.6 mph 26.5 mph N/A   Overcast
1:35 AM 30.2 °F 17.1 °F 23.0 °F 75% 30.07 in 5.0 mi NNE 21.9 mph 27.6 mph N/A   Overcast
1:55 AM 30.2 °F 17.1 °F 23.0 °F 75% 30.06 in 6.0 mi North 21.9 mph 25.3 mph N/A   Overcast
2:15 AM 30.2 °F 18.5 °F 23.0 °F 75% 30.06 in 5.0 mi NNE 17.3 mph 28.8 mph N/A   Overcast
2:35 AM 30.2 °F 17.8 °F 24.8 °F 80% 30.05 in 3.0 mi NNE 19.6 mph 27.6 mph N/A   Overcast
2:55 AM 28.4 °F 16.6 °F 23.0 °F 80% 30.04 in 3.0 mi NNE 16.1 mph 26.5 mph N/A   Overcast
3:15 AM 28.4 °F 16.6 °F 24.8 °F 86% 30.04 in 5.0 mi North 16.1 mph 24.2 mph N/A   Overcast
3:35 AM 30.2 °F 17.8 °F 24.8 °F 80% 30.05 in 6.0 mi NNE 19.6 mph 26.5 mph N/A   Overcast
4:15 AM 30.2 °F 16.8 °F 21.2 °F 69% 30.05 in 10.0 mi NNE 23.0 mph 32.2 mph N/A   Mostly Cloudy
4:35 AM 30.2 °F 17.1 °F 21.2 °F 69% 30.05 in 10.0 mi NNE 21.9 mph 34.5 mph N/A   Overcast
4:55 AM 30.2 °F 16.5 °F 19.4 °F 64% 30.06 in 10.0 mi NNE 24.2 mph 31.1 mph N/A   Overcast
5:15 AM 30.2 °F 17.1 °F 19.4 °F 64% 30.05 in 10.0 mi NNE 21.9 mph 26.5 mph N/A   Overcast
5:35 AM 30.2 °F 17.4 °F 19.4 °F 64% 30.05 in 10.0 mi NNE 20.7 mph 29.9 mph N/A   Overcast
5:55 AM 30.2 °F 16.5 °F 19.4 °F 64% 30.05 in 10.0 mi NNE 24.2 mph 35.7 mph N/A   Overcast
6:15 AM 30.2 °F 18.5 °F 19.4 °F 64% 30.06 in 10.0 mi NNE 17.3 mph 31.1 mph N/A   Overcast
6:35 AM 30.2 °F 16.8 °F 19.4 °F 64% 30.06 in 10.0 mi NNE 23.0 mph 31.1 mph N/A   Overcast
6:55 AM 30.2 °F 17.1 °F 19.4 °F 64% 30.07 in 10.0 mi NNE 21.9 mph 26.5 mph N/A   Overcast
7:15 AM 30.2 °F 18.9 °F 19.4 °F 64% 30.07 in 10.0 mi NNE 16.1 mph 23.0 mph N/A   Overcast
7:35 AM 30.2 °F 18.1 °F 19.4 °F 64% 30.07 in 10.0 mi NNE 18.4 mph 29.9 mph N/A   Overcast
7:55 AM 30.2 °F 16.8 °F 19.4 °F 64% 30.08 in 10.0 mi NNE 23.0 mph 29.9 mph N/A   Overcast
8:15 AM 30.2 °F 16.2 °F 19.4 °F 64% 30.07 in 10.0 mi NNE 25.3 mph 34.5 mph N/A   Overcast
8:35 AM 30.2 °F 18.5 °F 19.4 °F 64% 30.07 in 10.0 mi North 17.3 mph 29.9 mph N/A   Overcast
8:55 AM 30.2 °F 17.4 °F 19.4 °F 64% 30.07 in 10.0 mi NNE 20.7 mph 31.1 mph N/A   Overcast
9:15 AM 32.0 °F 19.5 °F 19.4 °F 60% 30.07 in 10.0 mi NNE 21.9 mph 28.8 mph N/A   Overcast
9:35 AM 33.8 °F 22.2 °F 19.4 °F 56% 30.08 in 10.0 mi NNE 20.7 mph 26.5 mph N/A   Mostly Cloudy
9:55 AM 33.8 °F 23.2 °F 19.4 °F 56% 30.08 in 10.0 mi NNE 17.3 mph 29.9 mph N/A   Mostly Cloudy
10:15 AM 33.8 °F 22.2 °F 19.4 °F 56% 30.09 in 10.0 mi NNE 20.7 mph 29.9 mph N/A   Mostly Cloudy
10:35 AM 35.6 °F 25.2 °F 19.4 °F 52% 30.09 in 10.0 mi NNE 18.4 mph 23.0 mph N/A   Mostly Cloudy
10:55 AM 35.6 °F 24.8 °F 17.6 °F 48% 30.08 in 10.0 mi North 19.6 mph 29.9 mph N/A   Mostly Cloudy
11:15 AM 35.6 °F 24.8 °F 19.4 °F 52% 30.08 in 10.0 mi North 19.6 mph - N/A   Partly Cloudy
11:35 AM 37.4 °F 26.9 °F 19.4 °F 48% 30.08 in 10.0 mi North 20.7 mph 28.8 mph N/A   Clear
11:55 AM 39.2 °F 28.7 °F 19.4 °F 45% 30.08 in 10.0 mi North 23.0 mph 28.8 mph N/A   Partly Cloudy
12:15 PM 39.2 °F 29.6 °F 19.4 °F 45% 30.08 in 10.0 mi North 19.6 mph 29.9 mph N/A   Clear
12:35 PM 41.0 °F 32.5 °F 19.4 °F 42% 30.07 in 10.0 mi NNE 17.3 mph 27.6 mph N/A   Clear
12:55 PM 42.8 °F 36.2 °F 19.4 °F 39% 30.07 in 10.0 mi North 12.7 mph 24.2 mph N/A   Clear
1:15 PM 42.8 °F 34.0 °F 17.6 °F 36% 30.07 in 10.0 mi NNE 20.7 mph 27.6 mph N/A   Clear
1:35 PM 42.8 °F 34.5 °F 17.6 °F 36% 30.07 in 10.0 mi NNE 18.4 mph 31.1 mph N/A   Clear
1:55 PM 42.8 °F 33.8 °F 17.6 °F 36% 30.07 in 10.0 mi NNE 21.9 mph 29.9 mph N/A   Clear
2:15 PM 44.6 °F 37.2 °F 17.6 °F 34% 30.08 in 10.0 mi NNE 17.3 mph 28.8 mph N/A   Clear
2:35 PM 44.6 °F 35.7 °F 15.8 °F 31% 30.08 in 10.0 mi NNE 24.2 mph - N/A   Clear
2:55 PM 44.6 °F 36.6 °F 17.6 °F 34% 30.08 in 10.0 mi NNE 19.6 mph 27.6 mph N/A   Clear
3:15 PM 44.6 °F 36.1 °F 15.8 °F 31% 30.08 in 10.0 mi NE 21.9 mph 34.5 mph N/A   Clear
3:35 PM 44.6 °F 37.8 °F 15.8 °F 31% 30.09 in 10.0 mi NNE 15.0 mph 32.2 mph N/A   Clear
3:55 PM 44.6 °F 37.4 °F 15.8 °F 31% 30.09 in 10.0 mi NNE 16.1 mph 24.2 mph N/A   Clear
4:15 PM 42.8 °F 35.1 °F 15.8 °F 34% 30.10 in 10.0 mi North 16.1 mph - N/A   Clear
4:35 PM 44.6 °F 38.4 °F 17.6 °F 34% 30.11 in 10.0 mi NNE 12.7 mph 25.3 mph N/A   Clear
4:55 PM 42.8 °F 35.1 °F 15.8 °F 34% 30.12 in 10.0 mi NNE 16.1 mph 25.3 mph N/A   Clear
5:15 PM 42.8 °F 34.5 °F 17.6 °F 36% 30.13 in 10.0 mi NNE 18.4 mph 23.0 mph N/A   Clear
5:35 PM 42.8 °F 35.1 °F 15.8 °F 34% 30.13 in 10.0 mi NNE 16.1 mph 25.3 mph N/A   Clear
5:55 PM 42.8 °F 35.8 °F 15.8 °F 34% 30.14 in 10.0 mi NNE 13.8 mph 18.4 mph N/A   Clear
6:15 PM 42.8 °F 36.6 °F 17.6 °F 36% 30.15 in 10.0 mi NNE 11.5 mph - N/A   Clear
6:35 PM 41.0 °F 33.9 °F 15.8 °F 36% 30.16 in 10.0 mi NNE 12.7 mph 21.9 mph N/A   Clear
6:55 PM 41.0 °F 33.1 °F 17.6 °F 39% 30.16 in 10.0 mi North 15.0 mph - N/A   Clear
7:15 PM 39.2 °F 31.2 °F 17.6 °F 42% 30.16 in 10.0 mi North 13.8 mph 19.6 mph N/A   Clear
7:35 PM 39.2 °F 31.2 °F 17.6 °F 42% 30.17 in 10.0 mi NNE 13.8 mph 20.7 mph N/A   Clear
7:55 PM 39.2 °F 31.2 °F 17.6 °F 42% 30.18 in 10.0 mi North 13.8 mph 18.4 mph N/A   Clear
8:15 PM 39.2 °F 31.2 °F 17.6 °F 42% 30.19 in 10.0 mi NNE 13.8 mph 19.6 mph N/A   Clear
8:35 PM 39.2 °F 31.2 °F 17.6 °F 42% 30.19 in 10.0 mi North 13.8 mph 18.4 mph N/A   Clear
8:55 PM 39.2 °F 31.6 °F 17.6 °F 42% 30.20 in 10.0 mi NNE 12.7 mph 19.6 mph N/A   Clear
9:15 PM 37.4 °F 29.3 °F 17.6 °F 45% 30.20 in 10.0 mi North 12.7 mph 21.9 mph N/A   Clear
9:35 PM 37.4 °F 28.2 °F 17.6 °F 45% 30.20 in 10.0 mi North 16.1 mph 23.0 mph N/A   Clear
9:55 PM 37.4 °F 28.9 °F 17.6 °F 45% 30.20 in 10.0 mi North 13.8 mph 18.4 mph N/A   Clear
10:15 PM 37.4 °F 28.9 °F 19.4 °F 48% 30.20 in 10.0 mi North 13.8 mph - N/A   Clear
10:35 PM 37.4 °F 28.9 °F 19.4 °F 48% 30.21 in 10.0 mi NNE 13.8 mph 19.6 mph N/A   Clear
10:55 PM 35.6 °F 25.9 °F 19.4 °F 52% 30.20 in 10.0 mi North 16.1 mph 20.7 mph N/A   Clear
11:15 PM 35.6 °F 26.2 °F 19.4 °F 52% 30.20 in 10.0 mi NNE 15.0 mph - N/A   Clear
11:35 PM 35.6 °F 27.1 °F 19.4 °F 52% 30.20 in 10.0 mi North 12.7 mph - N/A   Clear
11:55 PM 35.6 °F 28.0 °F 17.6 °F 48% 30.20 in 10.0 mi North 10.4 mph - N/A   Clear